Showing default

FLOCK 4BE 24, 60505

Orbit data source: Space-Track

FLOCK 4BE 24, 60505 is a payload satellite owned by Planet (US) in SSO that was launched on Fri, 16 Aug 2024 UTC via an FALCON 9 launch vehicle from the Air Force Western Test Range (AFWTR). Payload-class satellites include a variety of spacecraft equipped with specific instruments for various scientific and technological missions. These include communications satellites like Starlink; space stations such as the ISS; scientific satellites like the Hubble; Earth observation satellites from companies like Planet Labs, Umbra, and HawkEye 360; GPS; miniature CubeSats for education and research; and military/defense satellites.

Loading next visibility...
Identifier
60505, 2024-149AP
Orbit
SSO
Country
Flag of USUS
Related business
Manufacturer
Planet
Mission
Operational Commercial Imaging
Bus & Motor
CUBESAT 3U, Unknown motor
Mass
5.7 kg wet, 5.7 kg dry
Launch date (UTC)
2024-08-16 (1 year ago)
Launch vehicle
FALCON 9
Launch site
Air Force Western Test Range (AFWTR)
Object type
Payload
Rocket body
Debris
Shape & HBR
Box + 2 Pan, 1.0 m
Radar Cross Section
0.072 m², Medium (>0.1 m² and < 1m²)

Expand to show TLE details & history
Last TLE update: 16 hours ago

TLE from 16 hours ago
0 FLOCK 4BE 24
1 60505U 24149AP  25303.16621784  .00024669  00000-0  76832-3 0  9990
2 60505  97.3945  21.1777 0004774  41.7999 318.3607 15.33256181 67007
Epoch: 2025-10-30T03:59Z
TLE epoch observation values (Epoch: 2025-10-30T03:59:21.221Z)
Latitude
-0.00004°
Longitude
-77.38962°
Altitude
466.772 km
Speed
7.634 km/s
True Right ascension
01h 24m 42s
True Declination
0° 00' 00"
Sunlit
Object was in full shadow at epoch
Visualization orbit readout
Latitude
Unknown
Longitude
Unknown
Altitude
Unknown
Speed
Unknown
Apparent Right ascension
Unknown
Apparent Declination
Unknown
Sunlit
N/A
Visualization observer readout
Local Sidereal Time
15:35:44
Azimuth
Unknown
Elevation
Unknown
Doppler factor
Unknown
Orbital elements
Apogee altitude
466.319 km
Perigee altitude
459.787 km
Semi-major axis
6,841.19 km
Eccentricity
0.00048
Inclination
97.3945°
RAAN
21.1777°
Arg. of periapsis
41.7999°
True anomaly
318.32433°
Mean anomaly
318.3607°
Eccentric anomaly
318.34252°
Mean motion
3.83571 °/min
Orbital period
93.85 mins
BSTAR
0.00076832
Loading maneuver chart data...
Computing Atmospheric mass density...
Loading historical data...
Loading historical data...
Loading historical data...
Loading historical data...
Loading historical data...
Loading historical data...
Loading historical data...

Documentation

Showing up to 5 results
|